When you browse on this site, cookies collect data to enhance your experience and personalize the content and advertising you see.
Visit our Privacy Policy to learn more. By continuing to use the site, you agree to this use of cookies and data.
  • In Lithuania
  • List of Countries
  • For 7 days
  • Water Temperature
  • Satellite Maps
  • Weather Map
  • Weather Widgets
  • user-avatar
    Login

    Hourly Weather Ostrezna

    Today, 17 February, Sunday

    Time Temperature Precipitation Wind Pressure Humidity
    00:00 +3°C° 0 mm 3 mps 747 mmHg 58%
    01:00 +4°C° 0 mm 3 mps 747 mmHg 58%
    02:00 +3°C° 0 mm 3 mps 746 mmHg 58%
    03:00 +3°C° 0 mm 3 mps 746 mmHg 59%
    04:00 +4°C° 0 mm 2 mps 746 mmHg 60%
    05:00 +3°C° 0 mm 2 mps 746 mmHg 60%
    06:00 +3°C° 0 mm 2 mps 746 mmHg 60%
    07:00 +3°C° 0 mm 1 mps 747 mmHg 58%
    08:00 +5°C° 0 mm 1 mps 747 mmHg 55%
    09:00 +7°C° 0 mm 1 mps 747 mmHg 52%
    10:00 +9°C° 0 mm 1 mps 747 mmHg 50%
    11:00 +10°C° 0 mm 1 mps 746 mmHg 47%
    12:00 +11°C° 0 mm 1 mps 746 mmHg 44%
    13:00 +13°C° 0 mm 1 mps 746 mmHg 40%
    14:00 +13°C° 0 mm 1 mps 746 mmHg 45%
    15:00 +12°C° 0 mm 1 mps 746 mmHg 50%
    16:00 +12°C° 0 mm 1 mps 746 mmHg 55%
    17:00 +10°C° 0 mm 1 mps 746 mmHg 59%
    18:00 +8°C° 0 mm 1 mps 745 mmHg 62%
    19:00 +7°C° 0 mm 1 mps 745 mmHg 65%
    20:00 +6°C° 0 mm 1 mps 745 mmHg 64%
    21:00 +5°C° 0 mm 2 mps 745 mmHg 63%
    22:00 +5°C° 0 mm 2 mps 745 mmHg 62%
    23:00 +4°C° 0 mm 2 mps 745 mmHg 61%

    Tomorrow, 18 February, Monday

    Time Temperature Precipitation Wind Pressure Humidity
    00:00 +4°C° 0 mm 2 mps 745 mmHg 60%
    01:00 +4°C° 0 mm 2 mps 745 mmHg 59%
    02:00 +4°C° 0 mm 2 mps 745 mmHg 59%
    03:00 +3°C° 0 mm 2 mps 745 mmHg 60%
    04:00 +3°C° 0 mm 2 mps 745 mmHg 60%
    05:00 +3°C° 0 mm 2 mps 745 mmHg 60%
    06:00 +3°C° 0 mm 2 mps 744 mmHg 61%
    07:00 +3°C° 0 mm 2 mps 744 mmHg 61%
    08:00 +5°C° 0 mm 1 mps 744 mmHg 57%
    09:00 +7°C° 0 mm 1 mps 744 mmHg 54%
    10:00 +9°C° 0 mm 1 mps 745 mmHg 50%
    11:00 +10°C° 0 mm 1 mps 744 mmHg 47%
    12:00 +12°C° 0 mm 1 mps 744 mmHg 44%
    13:00 +13°C° 0 mm 1 mps 744 mmHg 41%
    14:00 +13°C° 0 mm 1 mps 743 mmHg 45%
    15:00 +12°C° 0 mm 1 mps 743 mmHg 50%
    16:00 +12°C° 0 mm 1 mps 743 mmHg 54%
    17:00 +10°C° 0 mm 1 mps 743 mmHg 58%
    18:00 +7°C° 0 mm 2 mps 742 mmHg 63%
    19:00 +6°C° 0 mm 2 mps 742 mmHg 68%
    20:00 +5°C° 0 mm 2 mps 742 mmHg 68%
    21:00 +5°C° 0 mm 2 mps 742 mmHg 69%
    22:00 +4°C° 0 mm 2 mps 742 mmHg 70%
    23:00 +3°C° 0 mm 3 mps 742 mmHg 71%

    Day after tomorrow, 19 February, Tuesday

    Time Temperature Precipitation Wind Pressure Humidity
    00:00 +2°C° 0 mm 3 mps 742 mmHg 72%
    01:00 +2°C° 0 mm 3 mps 742 mmHg 74%
    02:00 +2°C° 0 mm 3 mps 741 mmHg 75%
    03:00 +2°C° 0 mm 3 mps 741 mmHg 76%
    04:00 +2°C° 0 mm 3 mps 741 mmHg 77%
    05:00 +1°C° 0 mm 3 mps 741 mmHg 78%
    06:00 +1°C° 0 mm 3 mps 740 mmHg 80%
    07:00 +1°C° 0 mm 3 mps 740 mmHg 81%
    08:00 +2°C° 0 mm 3 mps 740 mmHg 76%
    09:00 +4°C° 0 mm 3 mps 740 mmHg 70%
    10:00 +7°C° 0 mm 3 mps 740 mmHg 64%
    11:00 +7°C° 0 mm 4 mps 740 mmHg 60%
    12:00 +8°C° 0 mm 4 mps 740 mmHg 57%
    13:00 +10°C° 0 mm 4 mps 739 mmHg 53%
    14:00 +10°C° 0 mm 4 mps 739 mmHg 55%
    15:00 +8°C° 0 mm 4 mps 739 mmHg 58%
    16:00 +7°C° 0 mm 4 mps 739 mmHg 60%
    17:00 +6°C° 0 mm 4 mps 739 mmHg 64%
    18:00 +6°C° 0 mm 4 mps 739 mmHg 68%
    19:00 +5°C° 0 mm 4 mps 739 mmHg 72%
    20:00 +5°C° 0.3 mm 4 mps 740 mmHg 77%
    21:00 +5°C° 0.3 mm 4 mps 740 mmHg 82%
    22:00 +5°C° 0.3 mm 5 mps 740 mmHg 88%
    23:00 +4°C° 0.1 mm 4 mps 741 mmHg 88%

    20 February, Wednesday

    Time Temperature Precipitation Wind Pressure Humidity
    00:00 +4°C° 0.1 mm 4 mps 741 mmHg 88%
    01:00 +3°C° 0.1 mm 3 mps 741 mmHg 88%
    02:00 +3°C° 0 mm 3 mps 741 mmHg 88%
    03:00 +1°C° 0 mm 4 mps 742 mmHg 88%
    04:00 +1°C° 0 mm 4 mps 742 mmHg 87%
    05:00 +1°C° 0 mm 4 mps 742 mmHg 88%
    06:00 0°C° 0 mm 4 mps 743 mmHg 88%
    07:00 0°C° 0 mm 4 mps 743 mmHg 88%
    08:00 +1°C° 0 mm 4 mps 743 mmHg 83%
    09:00 +4°C° 0 mm 4 mps 743 mmHg 79%
    10:00 +5°C° 0 mm 5 mps 744 mmHg 74%
    11:00 +5°C° 0 mm 5 mps 744 mmHg 71%
    12:00 +6°C° 0 mm 5 mps 744 mmHg 67%
    13:00 +6°C° 0 mm 5 mps 744 mmHg 64%
    14:00 +6°C° 0 mm 5 mps 744 mmHg 64%
    15:00 +6°C° 0 mm 4 mps 744 mmHg 64%
    16:00 +6°C° 0 mm 4 mps 744 mmHg 64%
    17:00 +5°C° 0 mm 4 mps 744 mmHg 69%
    18:00 +4°C° 0 mm 3 mps 744 mmHg 73%
    19:00 +3°C° 0 mm 3 mps 745 mmHg 77%
    20:00 +3°C° 0 mm 3 mps 745 mmHg 78%
    21:00 +3°C° 0 mm 3 mps 745 mmHg 79%
    22:00 +3°C° 0 mm 3 mps 746 mmHg 80%
    23:00 +2°C° 0 mm 3 mps 746 mmHg 82%

    21 February, Thursday

    Time Temperature Precipitation Wind Pressure Humidity
    00:00 +2°C° 0 mm 3 mps 746 mmHg 83%
    01:00 +2°C° 0 mm 3 mps 746 mmHg 84%
    02:00 +2°C° 0 mm 3 mps 746 mmHg 85%
    03:00 +1°C° 0 mm 3 mps 746 mmHg 85%
    04:00 +1°C° 0 mm 3 mps 746 mmHg 86%
    05:00 +1°C° 0 mm 3 mps 746 mmHg 86%
    06:00 +1°C° 0 mm 3 mps 746 mmHg 87%
    07:00 +1°C° 0 mm 3 mps 747 mmHg 87%
    08:00 +2°C° 0 mm 3 mps 747 mmHg 82%
    09:00 +4°C° 0 mm 3 mps 747 mmHg 77%
    10:00 +5°C° 0 mm 4 mps 747 mmHg 71%
    11:00 +6°C° 0 mm 4 mps 747 mmHg 68%
    12:00 +6°C° 0 mm 4 mps 747 mmHg 65%
    13:00 +7°C° 0 mm 4 mps 747 mmHg 62%
    14:00 +7°C° 0 mm 4 mps 747 mmHg 64%
    15:00 +6°C° 0 mm 4 mps 747 mmHg 67%
    16:00 +7°C° 0 mm 3 mps 746 mmHg 70%
    17:00 +7°C° 0.1 mm 3 mps 747 mmHg 73%
    18:00 +5°C° 0.1 mm 3 mps 747 mmHg 77%
    19:00 +4°C° 0.1 mm 3 mps 747 mmHg 80%
    20:00 +4°C° 0.2 mm 3 mps 747 mmHg 82%
    21:00 +5°C° 0.2 mm 2 mps 748 mmHg 83%
    22:00 +5°C° 0.2 mm 2 mps 748 mmHg 84%
    23:00 +5°C° 0.1 mm 2 mps 748 mmHg 85%

    22 February, Friday

    Time Temperature Precipitation Wind Pressure Humidity
    00:00 +5°C° 0.1 mm 2 mps 748 mmHg 86%
    01:00 +5°C° 0.1 mm 2 mps 748 mmHg 87%
    02:00 +5°C° 0 mm 2 mps 748 mmHg 88%
    03:00 +5°C° 0 mm 1 mps 748 mmHg 90%
    04:00 +5°C° 0 mm 1 mps 749 mmHg 91%
    05:00 +4°C° 0.1 mm 2 mps 749 mmHg 92%
    06:00 +4°C° 0.1 mm 2 mps 750 mmHg 93%
    07:00 +4°C° 0.1 mm 2 mps 750 mmHg 94%
    08:00 +5°C° 0.1 mm 2 mps 751 mmHg 94%
    09:00 +5°C° 0.1 mm 2 mps 752 mmHg 94%
    10:00 +5°C° 0.1 mm 2 mps 752 mmHg 94%
    11:00 +6°C° 0 mm 2 mps 753 mmHg 91%
    12:00 +7°C° 0 mm 2 mps 753 mmHg 87%
    13:00 +7°C° 0 mm 2 mps 753 mmHg 84%
    14:00 +7°C° 0.1 mm 2 mps 754 mmHg 84%
    15:00 +7°C° 0.1 mm 2 mps 754 mmHg 85%
    16:00 +7°C° 0.1 mm 2 mps 754 mmHg 85%
    17:00 +6°C° 0.1 mm 2 mps 754 mmHg 87%
    18:00 +6°C° 0.1 mm 2 mps 755 mmHg 90%
    19:00 +6°C° 0.1 mm 2 mps 755 mmHg 92%
    20:00 +6°C° 0 mm 1 mps 756 mmHg 92%
    21:00 +6°C° 0 mm 1 mps 756 mmHg 92%
    22:00 +6°C° 0 mm 1 mps 756 mmHg 93%
    23:00 +5°C° 0 mm 1 mps 757 mmHg 91%
    Show more